Weather History for Imperial, NE

Change the Weather History Date:

Monday, April 1, 2013

  Actual Average Record
Temperature  
Mean Temperature 41 °F 44 °F  
Max Temperature 52 °F 59 °F 87 °F (2012)
Min Temperature 29 °F 30 °F -1 °F (1936)
Degree Days  
Heating Degree Days 24 21  
Month to date heating degree days 24 21  
Cooling Degree Days 0 0  
Month to date cooling degree days 0 0  
Year to date cooling degree days 0 0  
Moisture  
Dew Point 25 °F    
Average Humidity 58    
Maximum Humidity 85    
Minimum Humidity 30    
Precipitation  
Precipitation 0.00 in 0.05 in 0.90 in (1967)
Sea Level Pressure  
Sea Level Pressure 30.22 in    
Wind  
Wind Speed 8 mph (ENE)    
Max Wind Speed 16 mph    
Max Gust Speed 21 mph    
Visibility 10 miles    
Events      
T = Trace of Precipitation, MM = Missing Value Source: NWS Daily Summary

Daily Weather History Graph

Daily Weather History Graph

Search for Another Location

Airport:

Trip Planner

Search our weather history database for the weather conditions in past years. The results will help you decide how hot, cold, wet, or windy it might be!

Date:

Astronomy

Apr. 01, 2013 Rise Set
Actual Time 6:29 AM MDT 7:11 PM MDT
Civil Twilight 6:02 AM MDT 7:39 PM MDT
Nautical Twilight 5:29 AM MDT 8:11 PM MDT
Astronomical Twilight 4:56 AM MDT 8:45 PM MDT
Moon 12:22 AM MDT (4/1) 10:17 AM MDT (4/1)
Length of Visible Light 13h 36m
Length of Day
12h 41m
Waning Gibbous, 66% of the Moon is Illuminated
Apr 1
Waning Gibbous
Apr 2
Last Quarter
Apr 10
New
Apr 18
First Quarter
Apr 25
Full

Hourly Weather History & Observations

Time (MDT) Temp. Windchill Dew Point Humidity Pressure Visibility Wind Dir Wind Speed Gust Speed Precip Events Conditions
12:53 AM 35.1 °F 25.5 °F 25.0 °F 67% 30.17 in 10.0 mi NE 15.0 mph - N/A   Clear
1:53 AM 33.1 °F 25.5 °F 26.1 °F 75% 30.19 in 10.0 mi NE 9.2 mph - N/A   Clear
2:53 AM 30.9 °F 25.2 °F 25.0 °F 79% 30.21 in 10.0 mi NNE 5.8 mph - N/A   Partly Cloudy
3:30 AM 30.2 °F 20.2 °F 24.8 °F 80% 30.20 in 10.0 mi NNE 12.7 mph - N/A   Mostly Cloudy
3:53 AM 30.0 °F 18.7 °F 26.1 °F 85% 30.21 in 10.0 mi NNE 16.1 mph - N/A   Overcast
4:12 AM 30.2 °F 19.8 °F 26.6 °F 86% 30.20 in 10.0 mi NNE 13.8 mph - N/A   Overcast
4:49 AM 30.2 °F 21.9 °F 24.8 °F 80% 30.21 in 10.0 mi NE 9.2 mph 19.6 mph N/A   Overcast
4:53 AM 30.0 °F 20.5 °F 26.1 °F 85% 30.21 in 10.0 mi NE 11.5 mph - N/A   Overcast
5:53 AM 30.0 °F 22.4 °F 24.1 °F 79% 30.23 in 10.0 mi NE 8.1 mph - N/A   Overcast
6:53 AM 30.0 °F 22.4 °F 24.1 °F 79% 30.26 in 10.0 mi NE 8.1 mph - N/A   Overcast
7:53 AM 33.1 °F 26.9 °F 25.0 °F 72% 30.28 in 10.0 mi ENE 6.9 mph - N/A   Mostly Cloudy
8:03 AM 33.8 °F 27.0 °F 24.8 °F 70% 30.24 in 10.0 mi NE 8.1 mph - N/A   Scattered Clouds
8:53 AM 36.0 °F 30.3 °F 25.0 °F 64% 30.29 in 10.0 mi East 6.9 mph - N/A   Partly Cloudy
9:53 AM 37.9 °F 32.1 °F 25.0 °F 60% 30.29 in 10.0 mi NE 8.1 mph - N/A   Clear
10:53 AM 41.0 °F - 24.1 °F 51% 30.29 in 10.0 mi Calm Calm - N/A   Clear
11:53 AM 43.0 °F 40.3 °F 25.0 °F 49% 30.28 in 10.0 mi Variable 4.6 mph - N/A   Clear
12:53 PM 48.0 °F - 25.0 °F 41% 30.24 in 10.0 mi North 4.6 mph - N/A   Clear
1:53 PM 50.0 °F - 24.1 °F 36% 30.21 in 10.0 mi ENE 10.4 mph - N/A   Clear
2:53 PM 50.0 °F - 24.1 °F 36% 30.19 in 10.0 mi SE 10.4 mph - N/A   Clear
3:53 PM 51.1 °F - 23.0 °F 33% 30.17 in 10.0 mi SE 6.9 mph - N/A   Clear
4:53 PM 51.1 °F - 21.9 °F 32% 30.15 in 10.0 mi ESE 8.1 mph - N/A   Clear
5:53 PM 48.9 °F - 24.1 °F 38% 30.16 in 10.0 mi SSE 10.4 mph - N/A   Clear
6:53 PM 46.9 °F - 26.1 °F 44% 30.18 in 10.0 mi SSE 11.5 mph - N/A   Clear
7:53 PM 41.0 °F 36.4 °F 26.1 °F 55% 30.20 in 10.0 mi SSE 6.9 mph - N/A   Clear
8:53 PM 36.0 °F 31.1 °F 25.0 °F 64% 30.22 in 10.0 mi SE 5.8 mph - N/A   Clear
9:53 PM 35.1 °F 27.9 °F 26.1 °F 70% 30.24 in 10.0 mi SE 9.2 mph - N/A   Clear
10:53 PM 35.1 °F 27.9 °F 26.1 °F 70% 30.23 in 10.0 mi SSE 9.2 mph - N/A   Clear
11:53 PM 34.0 °F 27.2 °F 25.0 °F 70% 30.22 in 10.0 mi South 8.1 mph - N/A   Clear